Flag for Norway Weather past 2 weeks in Stavanger, Norway

Now
43 °F

Scattered showers. Partly sunny.


Feels Like: 39 °F
Forecast: 37 / 41 °F
Wind: 7 mph from Northwest

Location: Stavanger / Sola

Current Time: Mar 30, 2015 at 12:28:17 PM

Latest Report: Mar 30, 2015 at 11:50 AM


Visibility: N/A

Pressure: 29.18 "Hg

Humidity: 76%

Dew point: 36 °F

Location of StavangerLocation

Historic Weather in Stavanger — Graph

°F

Stavanger temperature yesterday

Maximum temperature yesterday: 46 °F (at 1:50 PM)
Minimum temperature yesterday: 39 °F (at 11:50 PM)
Average temperature yesterday: 43 °F

Past Weeks' High & Low Weather Summary

 TemperatureHumidityPressure
High54 °F (Mar 18, 11:50 AM)100% (Mar 19, 3:50 AM)30.74 "Hg (Mar 19, 3:50 AM)
Low30 °F (Mar 27, 5:50 AM)31% (Mar 21, 2:50 PM)29.00 "Hg (Mar 29, 11:50 PM)
Average42 °F78%30.01 "Hg
* Reported Mar 15 10:20 AM — Mar 30 11:20 AM, Stavanger, Weather by CustomWeather, © 2015

Note: Actual official high and low records may vary slightly from our data, if they occured in-between our weather recording intervals... More about our weather records

Advertising

Stavanger weather history for previous 24 hours

 ConditionsComfort  
Time TempWeatherWind HumidityBarometerVisibility
11:20 AM
Mon, Mar 30
43 °FPartly sunny.8 mph76%29.15 "HgN/A
10:50 AM43 °FPartly sunny.6 mph76%29.15 "HgN/A
10:20 AM41 °FBroken clouds.7 mph81%29.12 "HgN/A
9:50 AM41 °FPartly sunny.6 mph81%29.12 "HgN/A
9:20 AM41 °FScattered showers. Broken clouds.5 mph81%29.12 "HgN/A
8:50 AM39 °FScattered showers. Broken clouds.6 mph93%29.09 "HgN/A
8:20 AM39 °FScattered showers. Broken clouds.6 mph87%29.09 "HgN/A
7:50 AM39 °FPassing clouds.8 mph87%29.06 "HgN/A
7:20 AM39 °FPassing clouds.10 mph87%29.06 "HgN/A
6:50 AM39 °FPassing clouds.5 mph93%29.03 "HgN/A
6:20 AM39 °FPartly cloudy.5 mph87%29.03 "HgN/A
5:50 AM39 °FPartly cloudy.7 mph87%29.03 "HgN/A
4:50 AM39 °FPartly cloudy.9 mph93%29.00 "HgN/A
3:50 AM39 °FPassing clouds.10 mph93%29.00 "HgN/A
2:50 AM39 °FPartly cloudy.10 mph93%29.00 "HgN/A
1:50 AM39 °FPartly cloudy.No wind100%29.00 "Hg5 mi
12:50 AM39 °FPartly cloudy.1 mph100%29.00 "HgN/A
12:20 AM39 °FPartly cloudy.1 mph100%29.00 "HgN/A
11:50 PM
Sun, Mar 29
39 °FPartly cloudy.1 mph100%29.00 "HgN/A
10:50 PM41 °FPassing clouds.1 mph93%29.03 "HgN/A
10:20 PM41 °FPassing clouds.No wind87%29.03 "HgN/A
9:50 PM41 °FPartly cloudy.1 mph93%29.03 "HgN/A
9:20 PM41 °FPartly cloudy.1 mph93%29.03 "HgN/A
8:50 PM41 °FPartly sunny.3 mph93%29.03 "HgN/A
8:20 PM41 °FBroken clouds.5 mph93%29.03 "HgN/A
7:50 PM43 °FBroken clouds.5 mph81%29.03 "HgN/A
7:20 PM43 °FBroken clouds.7 mph81%29.03 "HgN/A
6:50 PM43 °FScattered clouds.7 mph81%29.03 "HgN/A
6:20 PM43 °FBroken clouds.7 mph76%29.03 "HgN/A
5:50 PM45 °FScattered clouds.7 mph76%29.03 "HgN/A
5:20 PM45 °FScattered clouds.6 mph76%29.06 "HgN/A
4:50 PM45 °FBroken clouds.7 mph76%29.06 "HgN/A
4:20 PM45 °FBroken clouds.6 mph76%29.09 "HgN/A
3:50 PM45 °FBroken clouds.8 mph76%29.09 "HgN/A
3:20 PM45 °FPartly sunny.8 mph76%29.09 "HgN/A
2:50 PM45 °FPartly sunny.9 mph76%29.12 "HgN/A
2:20 PM45 °FPartly sunny.9 mph76%29.12 "HgN/A
1:50 PM46 °FPartly sunny.10 mph76%29.12 "HgN/A
1:20 PM45 °FPartly sunny.10 mph81%29.12 "HgN/A
12:50 PM45 °FPartly sunny.10 mph81%29.15 "HgN/A
12:20 PM45 °FPartly sunny.9 mph81%29.15 "HgN/A
Weather by CustomWeather, © 2015

See weather overviewHow to use our weather pages